[[{"header":{"parameterUnit":"m.s-1","parameterCategory":1,"la1":30.2992,"la2":30.254,"lo1":-89.0895,"lo2":-89.0443,"dy":0.0025,"dx":0.0025,"nx":19,"ny":19,"refTime":"2026-03-09T21:00:00:Z","depth":0,"parameterNumber":2,"parameterNumberName":"U-component_of_WINDS"},"data":[0,0,0,-2.1893,-2.1895,-2.1993,-2.1994,-2.212,-2.2121,0,0,0,0,0,0,0,0,0,0,0,-2.1862,-2.1863,-2.1893,-2.1895,-2.1993,-2.1994,-2.212,-2.2121,0,0,0,0,0,0,0,0,0,0,0,-2.1862,-2.1862,-2.1863,-2.1895,-2.1993,-2.1994,-2.2119,-2.2045,0,0,0,0,0,0,0,0,0,0,-2.195,-2.1919,-2.1862,-2.1863,-2.1896,-2.1993,-2.1994,-2.2042,-2.205,-2.2075,0,-2.2095,0,-2.211,-2.2129,-2.213,0,0,0,-2.1897,-2.1913,-2.194,-2.1864,-2.1897,-2.1993,-2.1949,-2.2046,-2.2056,-2.2086,-2.2097,-2.2101,-2.2112,-2.213,-2.2131,-2.2263,-2.2264,0,0,-2.1891,-2.1879,-2.1934,-2.1946,-2.1929,-2.1946,-2.1952,-2.2052,-2.2064,-2.2097,-2.2104,-2.2114,-2.2131,-2.2132,-2.2263,-2.2263,0,0,0,-2.1874,-2.1875,-2.1901,-2.1941,-2.1959,-2.1949,-2.1956,-2.2059,-2.2069,-2.2106,-2.2115,-2.2132,-2.2133,-2.2262,-2.2263,-2.2276,0,0,0,-2.1871,-2.1865,-2.1898,-2.1892,-2.1957,-2.201,-2.1961,-2.2062,-2.2073,-2.2115,-2.2132,-2.2134,-2.2261,-2.2262,-2.2274,-2.2283,0,0,0,-2.1856,-2.1864,-2.1877,-2.1891,-2.1933,-2.2009,-2.2024,-2.2065,-2.2079,-2.213,-2.2135,-2.2261,-2.2262,-2.2272,-2.2281,-2.2313,0,0,0,-2.1837,-2.1888,-2.1877,-2.1939,-2.1932,-2.2016,-2.2023,-2.2087,-2.2132,-2.2132,-2.2262,-2.2263,-2.2272,-2.228,-2.2312,-2.2337,-2.2346,0,0,-2.1895,-2.1895,-2.1933,-2.1925,-2.2007,-2.2002,-2.2087,-2.2141,-2.2158,-2.2228,-2.2231,-2.2274,-2.2281,-2.2313,-2.2408,-2.2416,0,0,0,-2.1947,-2.1973,-2.1998,-2.2039,-2.2081,-2.2117,-2.2159,-2.2179,-2.2238,-2.2191,-2.2296,-2.2301,-2.232,-2.2332,-2.2339,-2.2356,-2.2269,-2.2268,-2.2268,-2.2011,-2.2029,-2.2092,-2.2122,-2.2162,-2.2205,-2.224,-2.2274,-2.2282,-2.2307,-2.2327,-2.2382,-2.2397,-2.2401,-2.2419,-2.2344,-2.2344,-2.2344,-2.2344,-2.2096,-2.2136,-2.2145,-2.2208,-2.2228,-2.2283,-2.2327,-2.2331,-2.2385,-2.2369,-2.2387,-2.2365,-2.2409,-2.2425,-2.2345,-2.2345,-2.2345,-2.2344,-2.2344,-2.2139,-2.2161,-2.2184,-2.2245,-2.2291,-2.2322,-2.2373,-2.239,-2.2407,-2.2425,-2.2447,-2.2447,-2.2448,-2.2435,-2.2435,-2.2435,-2.2435,-2.2435,-2.2436,-2.2172,-2.2198,-2.2238,-2.2286,-2.2315,-2.2356,-2.24,-2.243,-2.2467,-2.2476,-2.2476,-2.248,-2.241,-2.2391,-2.2439,-2.2438,-2.2438,-2.2437,-2.2437,-2.2249,-2.2234,-2.2296,-2.2324,-2.2383,-2.2428,-2.245,-2.2508,-2.2536,-2.256,-2.2563,-2.2508,-2.251,-2.2505,-2.2489,-2.2559,-2.2559,-2.2559,-2.2559,-2.2283,-2.2285,-2.2352,-2.2397,-2.2443,-2.2469,-2.2539,-2.2575,-2.2611,-2.2629,-2.2622,-2.2603,-2.2598,-2.2603,-2.2595,-2.2581,-2.2672,-2.2673,-2.2673,-2.233,-2.2338,-2.2393,-2.2426,-2.2473,-2.2514,-2.2581,-2.2634,-2.2671,-2.2678,-2.2643,-2.2639,-2.2609,-2.2598,-2.2601,-2.259,-2.2563,0,0]},{"header":{"parameterUnit":"m.s-1","parameterCategory":1,"la1":30.2992,"la2":30.254,"lo1":-89.0895,"lo2":-89.0443,"dy":0.0025,"dx":0.0025,"nx":19,"ny":19,"refTime":"2026-03-09T21:00:00:Z","depth":0,"parameterNumber":3,"parameterNumberName":"V-component_of_WINDS"},"data":[0,0,0,2.8393,2.8393,2.8368,2.8368,2.8323,2.8322,0,0,0,0,0,0,0,0,0,0,0,2.8391,2.8391,2.8393,2.8392,2.8368,2.8368,2.8323,2.8322,0,0,0,0,0,0,0,0,0,0,0,2.8392,2.8391,2.839,2.8392,2.8368,2.8368,2.8323,2.8347,0,0,0,0,0,0,0,0,0,0,2.8373,2.8361,2.8391,2.839,2.8392,2.8368,2.8368,2.8348,2.8345,2.8328,0,2.8309,0,2.8315,2.8318,2.8318,0,0,0,2.8399,2.8363,2.8366,2.839,2.8392,2.8368,2.8381,2.8346,2.8343,2.8324,2.8309,2.8308,2.8314,2.8318,2.8318,2.8198,2.8197,0,0,2.8401,2.8381,2.8368,2.8363,2.8365,2.8382,2.838,2.8345,2.8327,2.8309,2.8307,2.8314,2.8317,2.8317,2.8199,2.8198,0,0,0,2.84,2.8382,2.8385,2.8365,2.8361,2.8381,2.8379,2.8328,2.8331,2.8306,2.8313,2.8317,2.8316,2.82,2.8198,2.8137,0,0,0,2.8401,2.8382,2.8386,2.8373,2.8362,2.8344,2.8363,2.8334,2.833,2.8313,2.8317,2.8316,2.8201,2.8199,2.8141,2.8111,0,0,0,2.8396,2.8381,2.8374,2.8372,2.8361,2.8345,2.8346,2.8333,2.8334,2.8318,2.8316,2.8201,2.8199,2.8144,2.8116,2.8076,0,0,0,2.8384,2.8318,2.8373,2.8302,2.8361,2.8308,2.8347,2.8307,2.8286,2.8317,2.82,2.8198,2.8145,2.812,2.8079,2.8038,2.8019,0,0,2.8289,2.8305,2.8266,2.8315,2.8246,2.8313,2.8237,2.8235,2.825,2.8215,2.8212,2.814,2.8117,2.8076,2.7918,2.7903,0,0,0,2.8229,2.82,2.8186,2.8166,2.8165,2.8163,2.8175,2.8176,2.8147,2.8228,2.8115,2.8101,2.8079,2.806,2.8047,2.8029,2.8189,2.8189,2.8189,2.8064,2.8091,2.8028,2.8053,2.8034,2.805,2.8038,2.8042,2.8071,2.8044,2.8033,2.7934,2.7912,2.7902,2.7884,2.8014,2.8014,2.8013,2.8013,2.7928,2.7892,2.7939,2.7894,2.7924,2.7887,2.7902,2.7926,2.7897,2.7943,2.7924,2.7973,2.7884,2.787,2.8009,2.801,2.801,2.8011,2.8011,2.7823,2.7811,2.7815,2.7793,2.7774,2.7803,2.7774,2.7802,2.7827,2.7809,2.7802,2.7803,2.7809,2.7804,2.7804,2.7803,2.7803,2.7803,2.7803,2.7712,2.7719,2.7692,2.769,2.7684,2.768,2.7701,2.7695,2.7697,2.772,2.772,2.7754,2.7871,2.79,2.7797,2.7798,2.7799,2.7799,2.78,2.7564,2.7604,2.7561,2.7556,2.7559,2.754,2.7578,2.7567,2.7567,2.7553,2.7593,2.7675,2.7692,2.7703,2.7727,2.7586,2.7586,2.7586,2.7586,2.7475,2.7489,2.7455,2.7445,2.7439,2.7471,2.7425,2.7443,2.7467,2.747,2.7495,2.753,2.754,2.7552,2.7566,2.7589,2.7416,2.7415,2.7415,2.7387,2.7402,2.7356,2.7383,2.7389,2.7394,2.7354,2.7342,2.7378,2.7409,2.7473,2.7481,2.7537,2.7554,2.7584,2.7604,2.7647,0,0]}]]